This demonstration page uses our WeatherBlox Daily Observations layout. Learn more.

Left ArrowRight Arrow

Hourly Observations for October 9, 2015

Temp ( °F °C ) Dew Point ( °F °C ) Humidity (%) Winds ( mph kmh ) Pressure ( in mb ) Visibility ( mi km ) Precip ( " mm )
12:53 am 00:53 Clear 63 17.2 60 15.6 90 90 Calm 30.10 1019 10 16 0.00 0.00
1:53 am 01:53 Clear 62 16.7 59 15 90 90 Calm 30.09 1019 10 16 0.00 0.00
2:53 am 02:53 Clear 62 16.7 59 15 90 90 Calm 30.09 1019 10 16 0.00 0.00
3:53 am 03:53 Clear 61 16.1 58 14.4 90 90 Calm 30.09 1019 10 16 0.00 0.00
4:53 am 04:53 Clear 59 15 57 13.9 93 93 Calm 30.09 1019 10 16 0.00 0.00
5:53 am 05:53 Clear 60 15.6 57 13.9 90 90 Calm 30.09 1019 10 16 0.00 0.00
6:53 am 06:53 Clear 60 15.6 57 13.9 90 90 Calm 30.11 1020 10 16 0.00 0.00
7:53 am 07:53 Sunny 61 16.1 58 14.4 90 90 Calm 30.12 1020 10 16 0.00 0.00
8:28 am 08:28 Mostly Sunny 63 17 59 15 88 88 Calm 30.15 1021 10 16 0.00 0.00
8:53 am 08:53 Mostly Cloudy 63 17.2 60 15.6 90 90 Calm 30.14 1021 10 16 0.00 0.00
9:19 am 09:19 Mostly Cloudy 64 17.8 60 15.6 87 87 Calm 30.15 1021 10 16 0.00 0.00
9:53 am 09:53 Mostly Cloudy 66 18.9 62 16.7 87 87 Calm 30.15 1021 10 16 0.00 0.00
10:53 am 10:53 Mostly Cloudy 70 21.1 61 16.1 73 73 Calm 30.14 1021 10 16 0.00 0.00
11:53 am 11:53 Cloudy 74 23.3 63 17.2 69 69 VRB 3 6 30.14 1021 10 16 0.00 0.00
12:53 pm 12:53 Mostly Sunny 76 24.4 63 17.2 64 64 W 6 9 30.11 1020 10 16 0.00 0.00
1:53 pm 13:53 Mostly Sunny 79 26.1 62 16.7 56 56 W 9 15 30.09 1019 10 16 0.00 0.00
2:53 pm 14:53 Cloudy 76 24.4 63 17.2 64 64 NW 7 11 30.06 1018 10 16 0.00 0.00
3:53 pm 15:53 Mostly Cloudy 77 25 63 17.2 62 62 W 3 6 30.04 1017 10 16 0.00 0.00
4:53 pm 16:53 Sunny 78 25.6 63 17.2 60 60 NW 5 7 30.03 1017 10 16 0.00 0.00
5:53 pm 17:53 Mostly Cloudy 77 25 60 15.6 56 56 Calm 30.02 1017 10 16 0.00 0.00
6:53 pm 18:53 Sunny 75 23.9 61 16.1 62 62 Calm 30.00 1016 10 16 0.00 0.00
7:53 pm 19:53 Clear 68 20 64 17.8 87 87 Calm 30.00 1016 10 16 0.00 0.00
8:53 pm 20:53 Clear 70 21.1 64 17.8 82 82 Calm 30.01 1016 10 16 0.00 0.00
9:53 pm 21:53 Clear 66 18.9 63 17.2 90 90 Calm 30.01 1016 10 16 0.00 0.00
10:53 pm 22:53 Mostly Cloudy 66 18.9 63 17.2 90 90 Calm 30.01 1016 10 16 0.00 0.00
11:53 pm 23:53 Cloudy 67 19.4 63 17.2 87 87 Calm 30.01 1016 10 16 0.00 0.00

Powered by AerisWeather